Location: Bodest
(46.3000°N, 22.5667°E)
Time: 10:21:16
(UTC+00:00)

Spot 2 - Pass Details

Date: 16 October 2021
Orbit: 570 x 773 km, 98.7° (Epoch: 07 December)

Event Time Altitude Azimuth Distance (km) Brightness Sun altitude
Rises 16:33:34 0° 149° (SSE) 2,764 7.1 -9.8°
Reaches altitude 10° 16:35:43 10° 144° (SE) 1,879 6.2 -10.1°
Maximum altitude 16:39:37 48° 70° (ENE) 769 4.2 -10.8°
Drops below altitude 10° 16:43:40 10° 356° (N) 1,956 6.7 -11.5°
Sets 16:45:57 0° 351° (N) 2,892 7.6 -11.9°
